Location: Flint Hill Observatory
(31.1875°N, 100.5222°W)
Time: 19:47:41
(UTC-05:00)

Daily predictions for brighter satellites

Satellite Brightness Start Highest point End
(mag) Time Altitude Azimuth Time Altitude Azimuth Time Altitude Azimuth
Cosmos 1934 Rocket 4.0 20:12:27 10° S 20:18:27 58° E 20:24:23 10° NNE
Cosmos 2297 4.5 20:14:27 10° SSE 20:19:16 29° ESE 20:24:09 10° NE
H-2A R/B 4.2 20:17:53 10° ESE 20:20:40 19° ENE 20:23:29 10° NNE
Cosmos 1867 4.1 20:16:18 10° S 20:21:12 36° ESE 20:26:09 10° NE
Aurora 2 Rocket 4.4 20:15:04 10° SW 20:22:26 38° S 20:27:46 10° ESE
USA 215 4.1 20:17:42 10° ENE 20:23:09 28° SE 20:28:35 10° S
Tiangong 1 2.5 20:20:43 10° NW 20:23:11 23° NNE 20:25:36 10° E
NOAA 12 4.1 20:20:51 10° SSE 20:26:10 82° ENE 20:31:29 10° N
Cosmos 1812 Rocket 3.6 20:25:20 10° S 20:29:45 86° W 20:34:09 10° N
Cosmos 1758 4.3 20:26:30 10° SE 20:29:45 24° E 20:33:00 10° NE
Cosmos 1707 3.2 20:26:48 10° NNW 20:30:39 65° W 20:34:27 10° S
FREGAT/IRIS 2.6 20:28:25 10° SSE 20:31:28 68° ENE 20:34:31 10° N
Lacrosse 5 3.5 20:29:14 10° WSW 20:33:52 36° NW 20:38:32 10° NNE
Helios 1B rocket 3.8 20:33:02 10° NE 20:35:56 18° E 20:38:49 10° SE
Cosmos 1953 3.2 20:34:08 10° SSE 20:37:38 28° E 20:41:09 10° NNE
Lacrosse 4 Rocket 4.4 20:35:54 10° W 20:38:17 15° WNW 20:40:40 10° NNW
Cosmos 2082 Rocket 3.8 20:34:55 10° NNE 20:38:28 17° ENE 20:41:10 12° E
Meteor 1-24 Rocket 3.7 20:33:28 10° N 20:39:01 70° E 20:44:45 10° SSE
GP-B 4.5 20:40:04 10° SE 20:43:07 19° E 20:46:14 10° NE
Delta 2 Rocket 3.6 20:39:38 10° WNW 20:44:36 76° NNE 20:47:57 17° E
Cosmos 1271 Rocket 4.3 20:45:01 15° ESE 20:46:25 17° E 20:49:02 10° NE
Cosmos 1766 3.8 20:45:05 10° SSW 20:48:54 61° W 20:52:45 10° N
Resurs 01 Rocket 1.9 20:45:14 10° SSE 20:49:26 46° ENE 20:53:39 10° N
Cosmos 1125 Rocket 3.5 20:46:54 10° S 20:51:59 62° ESE 20:57:08 10° NNE
Cosmos-2242 3.9 20:53:16 10° SE 20:56:47 25° E 21:00:17 10° NE
HJ-1C 3.5 20:56:50 10° S 21:00:12 78° W 21:03:36 10° NNW
Cosmos 1605 Rocket 4.0 20:55:53 10° S 21:02:07 88° W 21:08:29 10° N
Geosat 3.9 20:57:57 10° NNE 21:03:00 76° ESE 21:07:59 10° SSW
Cosmos 2100 Rocket 4.5 20:58:39 10° SSE 21:04:19 37° E 21:10:04 10° NNE
SeaSat 1 2.4 21:01:12 10° SSE 21:06:07 83° ENE 21:11:04 10° NNW
SAR-Lupe-4 4.4 21:05:55 29° E 21:06:14 29° ENE 21:09:24 10° NNE
Delta 168 3.5 21:03:03 10° WSW 21:06:35 30° S 21:07:33 25° SSE
Cosmos 1674 4.0 21:04:22 10° NNE 21:06:52 23° ENE 21:06:52 23° ENE
SL-27 R/B 3.6 21:09:50 10° NNW 21:13:16 45° WSW 21:16:45 10° S
CZ-2D R/B 3.1 21:13:15 18° SSE 21:15:58 71° ENE 21:19:51 10° N
RESURS DK-1 3.1 21:13:38 10° NNW 21:17:40 53° WSW 21:21:40 10° S
Cosmos 1805 4.2 21:17:02 10° SSW 21:20:48 48° W 21:24:35 10° N
Cosmos 2123 Rocket 4.4 21:15:50 10° NNW 21:22:04 64° W 21:28:13 10° S
Meteor 1-29 3.1 21:19:02 10° NNE 21:22:08 52° ENE 21:22:08 52° ENE
GPS 2-05 Rocket1 3.5 21:19:43 10° W 21:23:13 51° N 21:24:11 38° NE
Cosmos 1802 Rocket 4.2 21:19:52 10° SSE 21:25:35 43° E 21:31:20 10° NNE
ALOS 3.8 21:24:08 10° SSW 21:28:24 35° W 21:32:41 10° NNW
COSMOS 2487 3.8 21:25:06 10° N 21:27:14 28° NNE 21:27:14 28° NNE
Meteor 1-21 Rocket 4.2 21:23:39 10° N 21:29:30 70° E 21:33:48 19° SSE
Resurs 1-3 3.9 21:25:18 10° S 21:29:39 67° W 21:34:00 10° NNW
Meteor 1-4 Rocket 3.9 21:27:59 10° SSW 21:31:15 38° W 21:34:32 10° N
Cosmos 1818 3.5 21:28:29 10° NNW 21:33:54 65° ENE 21:35:22 45° ESE
Cosmos 1470 2.6 21:35:45 47° S 21:36:51 82° E 21:40:50 10° N
OAO 2 Rocket 3.6 21:34:02 10° SW 21:39:02 49° SSE 21:39:17 49° SE
Cosmos 2061 Rocket 4.0 21:32:51 10° S 21:39:06 64° E 21:45:28 10° NNE
Cosmos 1269 Rocket 3.9 21:34:53 10° N 21:40:09 68° ENE 21:41:19 52° SE
Cosmos 1408 Rocket 3.4 21:40:02 10° N 21:44:31 83° E 21:44:56 73° SSE
Cosmos 1733 3.3 21:45:51 71° NNW 21:45:51 71° NNW 21:49:24 10° N
Cosmos 1833 Rocket 2.6 21:41:21 10° NNW 21:46:55 60° ENE 21:47:24 57° E
Spot 1 4.3 21:46:04 44° S 21:47:30 79° WSW 21:52:20 10° NNW
Timation 2 Rocket 3.9 21:43:45 10° NNW 21:49:52 57° ENE 21:50:27 54° E
Cosmos 1340 Rocket 4.4 21:46:03 10° N 21:47:50 24° NNE 21:47:50 24° NNE
Yuri Rocket 3.9 21:46:31 10° W 21:49:58 36° SSW 21:49:58 36° SSW
ISS -1.8 21:48:05 10° W 21:50:54 27° NW 21:51:09 26° NNW
Cosmos 1459 Rocket 4.0 21:49:21 10° S 21:55:40 84° W 22:01:54 10° N
ATLAS 5 CENTAUR R/B 3.1 21:54:23 10° SW 21:58:41 38° NW 22:03:16 10° NNE
Tiangong 1 3.8 21:56:23 10° WNW 21:57:20 18° W 21:57:20 18° W
Delta 128 4.2 21:54:47 10° W 21:58:18 47° SW 21:58:18 47° SW
Cosmos 2173 Rocket 4.0 21:55:24 10° S 22:01:31 76° W 22:07:46 10° N
Cosmos 158 Rocket 3.9 21:57:23 10° NNW 22:02:34 87° WSW 22:02:37 87° SW
USA 215 3.6 21:59:53 10° NE 22:06:17 62° NW 22:12:41 10° WSW
BREEZE-M DEB (TANK) 4.4 22:04:51 10° W 22:08:20 40° NNW 22:18:55 10° NE
Aurora 2 Rocket 4.0 22:10:02 10° WSW 22:14:46 37° SW 22:14:46 37° SW
Cosmos 2082 Rocket 2.6 22:17:20 10° NNW 22:22:52 56° WSW 22:23:04 55° WSW
Envisat 3.6 22:23:11 53° W 22:23:11 53° W 22:27:52 10° NNW
Cosmos 2016 Rocket 4.4 22:31:29 42° SW 22:33:20 57° W 22:39:25 10° N
